Wind_Speed
35 32 30 28 25 23 22 20 19 17 15 13 12 11 7 5 6 6 6 6 5 4 3 1 1 1 1 2 2 3 3 4 3 3 4 4 3 6 5 6 5 5 4
39 35 31 28 25 23 22 21 19 18 15 15 11 7 5 4 5 5 5 4 4 3 2 1 0 1 1 2 2 3 3 2 2 2 1 2 3 3 4 4 3 4 2
39 36 31 28 25 24 22 22 19 18 16 11 7 5 5 5 4 5 4 4 3 1 0 1 1 2 2 2 3 3 2 2 2 2 1 1 1 2 3 2 4 6 6
40 37 33 28 25 24 24 21 20 17 13 10 6 5 5 4 4 4 3 2 1 1 1 2 2 2 3 3 3 4 3 3 3 3 2 2 1 3 3 5 7 11 9
40 36 33 29 26 25 23 22 20 14 13 9 7 6 5 5 4 4 3 2 2 2 2 2 3 3 3 4 5 6 5 4 4 4 3 2 2 7 11 13 10 8 10
40 36 33 30 26 25 23 22 17 14 11 9 7 6 5 5 4 4 4 3 2 2 3 3 3 4 5 6 6 6 6 6 7 7 7 7 5 10 11 11 11 12 8
39 35 33 29 28 26 24 20 15 12 10 9 7 6 5 5 5 5 4 3 3 3 4 4 5 4 6 7 8 7 9 9 8 9 10 12 14 11 12 12 12 12 9
39 36 31 29 29 27 23 18 15 12 10 9 8 7 6 6 5 5 5 5 5 5 5 5 5 6 7 7 8 9 11 12 11 11 12 13 13 13 13 12 14 15 17
36 36 33 32 29 26 22 18 14 12 10 9 8 7 7 6 6 6 5 5 5 6 5 6 6 7 8 9 11 12 13 14 13 15 16 17 15 14 15 15 18 21 22
35 35 34 32 30 27 23 18 15 12 11 9 8 8 8 7 6 6 6 6 6 6 5 5 6 8 9 10 12 14 14 15 14 18 22 19 16 16 20 20 22 20 16
35 37 34 32 29 26 23 18 15 13 12 10 9 9 8 7 7 6 6 5 6 6 6 6 7 9 9 10 12 14 14 16 19 21 17 16 19 21 22 22 18 15 14
36 33 34 31 29 26 22 19 17 14 12 11 10 9 8 8 7 6 6 5 5 5 6 7 9 10 10 10 12 13 14 16 18 19 21 17 20 20 20 18 12 11 10
35 34 34 32 28 25 22 20 17 15 13 12 11 9 8 7 7 6 6 5 5 6 7 8 8 9 9 10 11 12 14 14 14 20 22 17 19 17 14 12 13 11 14
38 36 35 32 29 26 22 20 18 16 14 12 11 10 9 8 7 6 6 6 6 7 7 7 8 9 9 10 10 11 13 12 13 18 20 22 18 16 14 14 13 13 15
39 37 35 32 29 26 23 20 19 17 14 13 12 11 10 8 7 6 6 6 6 6 7 7 8 9 9 9 10 10 11 12 11 13 15 16 16 16 14 13 8 9 13
39 36 34 31 29 26 22 20 19 18 16 14 13 12 11 10 8 6 6 6 6 7 7 8 8 8 8 9 9 9 10 10 10 9 9 8 7 5 4 6 4 8 12
38 37 35 32 29 26 23 21 20 18 16 15 13 13 11 10 8 7 5 5 6 7 7 8 8 8 7 8 8 8 8 9 8 7 7 6 4 2 1 1 2 7 10
36 35 35 33 31 27 25 22 20 19 17 16 14 13 12 11 9 7 6 5 6 7 8 8 9 8 8 7 7 8 7 7 6 6 6 5 4 2 0 2 2 3 6
34 31 35 34 32 29 26 24 21 20 19 17 16 15 13 12 11 8 7 6 6 7 8 9 9 8 8 8 7 7 6 5 5 5 5 4 3 4 5 7 9 7 7
31 34 34 35 33 31 29 26 24 23 21 20 18 16 15 13 12 10 8 7 7 7 8 9 8 9 10 9 8 7 6 5 4 4 4 3 3 3 4 5 8 9 12
28 35 37 34 33 34 33 31 29 27 24 22 20 18 16 15 13 11 10 8 8 8 8 9 10 10 11 11 10 9 7 4 4 4 4 3 3 3 3 3 5 6 8
28 31 33 33 37 36 35 33 30 27 25 22 21 20 18 16 14 12 11 10 9 9 10 10 10 11 11 13 11 9 7 6 6 5 5 4 1 2 2 1 2 4 6
34 36 31 26 40 39 33 36 32 29 27 26 25 24 21 18 15 14 13 12 11 11 11 10 11 11 11 13 12 8 5 6 11 9 7 6 4 2 1 2 2 4 5
35 21 31 28 40 40 38 38 36 31 31 28 26 23 23 20 17 16 15 14 13 13 12 11 11 12 12 12 14 16 10 6 8 8 11 9 8 5 5 4 3 4 5
42 31 37 25 37 47 43 38 38 37 32 29 28 28 26 23 20 19 18 17 16 14 14 13 13 12 12 13 13 13 13 12 11 7 10 13 11 8 7 6 5 4 5
43 43 32 31 41 50 45 43 41 38 35 32 31 31 29 25 22 21 20 19 18 17 16 14 14 14 13 13 13 13 12 11 12 12 10 14 13 10 10 9 8 6 5
Wind_Direction
178 172 170 171 169 168 166 164 160 154 150 148 151 158 164 172 179 181 184 193 209 228 238 246 313 356 348 348 353 11 22 24 32 32 37 44 37 40 36 49 29 59 50
171 172 170 170 169 167 164 160 155 154 153 157 161 172 191 188 181 189 194 200 206 203 203 204 38 12 359 347 343 8 12 18 20 8 9 65 73 44 30 48 25 21 336
173 170 168 170 169 167 163 158 158 165 167 170 180 189 190 191 194 189 185 184 184 184 130 29 25 5 4 349 4 18 33 59 72 75 55 29 12 337 338 347 326 325 327
171 170 168 172 169 165 161 160 166 170 177 184 199 201 196 194 186 178 172 168 146 63 27 30 34 31 23 18 21 47 56 67 72 66 38 35 350 347 347 351 31 35 25
170 169 168 169 168 165 162 168 172 177 181 194 202 202 198 184 175 164 162 149 122 83 58 47 45 47 48 49 52 65 68 64 66 65 55 40 41 59 59 60 46 76 60
173 172 169 170 168 168 170 175 178 183 188 197 197 196 187 174 166 156 146 138 124 110 97 83 75 74 70 71 77 77 76 71 70 74 76 75 80 84 77 68 57 53 48
173 172 171 170 174 172 177 179 183 186 190 191 190 187 177 168 159 152 142 134 119 110 101 93 88 81 79 84 84 83 80 77 73 78 79 76 66 77 78 71 58 57 60
173 172 170 172 173 178 180 183 182 188 189 188 181 179 169 160 155 148 140 131 123 116 105 95 91 81 83 84 88 88 86 81 85 86 81 76 92 81 83 67 67 58 59
175 172 172 177 177 181 182 182 184 188 186 183 177 172 165 158 151 142 131 122 114 112 110 110 107 94 93 97 93 89 84 87 87 79 74 77 67 79 82 76 72 69 62
174 173 177 180 182 181 180 183 185 185 183 180 173 168 162 155 149 141 134 125 116 109 109 110 107 107 103 102 94 89 87 95 86 78 70 75 82 72 78 83 73 69 75
177 180 181 179 179 180 180 183 184 183 180 176 173 166 160 154 147 138 130 121 114 110 118 124 117 111 101 104 95 91 91 94 90 81 77 66 78 81 81 80 83 81 75
180 180 183 182 182 182 183 184 183 183 178 177 173 170 164 156 149 141 132 123 114 112 118 119 118 111 106 106 97 93 96 104 99 86 86 79 80 79 85 91 81 66 55
182 183 186 186 185 185 187 186 184 183 182 179 174 173 169 160 152 148 138 130 123 118 119 116 118 118 115 107 100 98 99 113 103 97 99 93 84 87 89 78 67 41 53
185 187 188 188 186 187 191 189 187 185 184 182 179 175 173 168 159 156 147 141 136 133 128 127 127 127 123 114 105 102 104 111 106 113 107 107 103 97 85 77 58 45 47
188 190 190 189 189 190 193 192 189 188 187 185 182 180 178 173 168 162 156 153 145 139 136 135 135 131 127 120 113 108 107 110 114 119 132 115 112 114 108 93 65 57 53
191 189 194 192 191 193 195 197 194 190 191 189 185 183 183 177 175 172 169 158 153 150 148 146 143 139 136 126 119 114 113 113 117 120 132 144 148 149 119 96 101 60 62
201 193 195 195 194 196 197 201 200 196 195 194 190 187 187 183 182 182 175 165 162 158 157 158 158 153 150 137 132 122 114 113 115 119 123 128 139 159 237 264 73 70 65
201 199 196 198 197 198 200 203 204 201 199 197 194 192 191 190 190 189 184 179 174 170 167 168 167 166 160 147 144 133 125 120 118 116 119 115 102 80 358 253 271 78 36
207 206 196 200 199 203 203 205 206 205 201 200 199 197 197 195 195 194 198 192 184 180 175 175 175 174 173 167 161 148 139 130 122 116 120 112 89 65 49 48 26 21 30
225 214 203 202 199 205 204 205 207 206 203 203 203 202 201 201 200 204 204 201 197 193 186 184 179 182 181 179 173 163 150 133 135 132 122 111 94 67 50 28 25 40 39
218 224 209 204 201 206 205 205 207 207 205 206 205 206 206 205 207 209 212 212 209 202 197 193 190 188 189 185 179 167 163 156 149 156 145 132 109 78 57 35 21 25 18
213 219 206 209 206 208 211 209 209 209 210 211 209 210 210 210 212 214 219 219 218 215 208 203 199 196 194 193 191 185 185 196 191 184 170 160 138 82 85 55 356 350 358
203 208 226 232 211 209 214 210 210 208 213 212 211 213 213 212 214 220 224 225 225 223 218 212 209 206 207 205 202 198 192 206 193 198 193 196 201 211 256 297 314 328 342
196 202 205 265 221 214 214 213 209 211 214 216 215 214 215 216 217 223 227 229 230 230 227 222 217 216 216 219 218 218 234 230 191 192 206 207 210 228 247 265 295 335 354
213 213 205 251 234 217 216 217 210 214 218 220 217 221 220 219 218 226 229 231 233 234 230 228 227 224 223 224 223 225 227 224 218 213 204 203 209 220 236 245 263 294 322
210 215 226 207 215 219 221 218 216 218 218 220 223 227 223 223 223 228 233 234 235 235 235 233 230 229 226 224 224 230 232 233 234 223 221 205 213 218 225 237 252 273 295
Height
1498 1503 1507 1512 1516 1519 1523 1525 1528 1531 1533 1535 1536 1536 1537 1537 1538 1538 1538 1538 1538 1538 1537 1537 1537 1537 1537 1537 1536 1536 1535 1535 1534 1535 1535 1537 1539 1536 1536 1539 1539 1537 1537
1493 1500 1506 1511 1514 1518 1522 1525 1528 1531 1533 1534 1535 1536 1537 1537 1537 1538 1538 1538 1538 1538 1538 1537 1537 1537 1537 1536 1536 1536 1535 1535 1535 1536 1537 1538 1537 1538 1539 1539 1538 1539 1540
1492 1498 1505 1510 1514 1517 1521 1524 1528 1531 1532 1534 1535 1535 1536 1537 1537 1537 1537 1537 1537 1537 1537 1537 1537 1537 1536 1536 1537 1537 1537 1537 1537 1537 1537 1537 1538 1538 1539 1540 1540 1539 1539
1492 1498 1503 1509 1514 1517 1521 1524 1527 1530 1532 1533 1535 1535 1536 1536 1537 1537 1537 1537 1537 1537 1537 1537 1537 1536 1536 1536 1537 1537 1537 1537 1537 1537 1537 1538 1539 1539 1539 1539 1539 1539 1537
1492 1497 1502 1508 1513 1517 1521 1524 1527 1529 1531 1533 1534 1535 1535 1536 1536 1537 1537 1537 1537 1537 1537 1537 1537 1536 1536 1537 1537 1537 1538 1538 1538 1538 1538 1538 1539 1539 1540 1540 1539 1539 1539
1491 1497 1502 1507 1513 1517 1521 1523 1526 1529 1531 1532 1534 1534 1535 1536 1536 1537 1537 1538 1538 1538 1538 1538 1538 1537 1537 1538 1538 1538 1538 1539 1539 1539 1539 1539 1539 1540 1540 1540 1540 1540 1539
1492 1498 1503 1507 1512 1516 1520 1524 1526 1529 1531 1532 1533 1534 1535 1535 1536 1537 1537 1538 1538 1539 1539 1539 1539 1539 1539 1539 1539 1539 1539 1540 1540 1540 1540 1539 1539 1540 1540 1541 1541 1540 1538
1492 1497 1503 1507 1511 1515 1520 1523 1526 1529 1530 1531 1532 1534 1534 1535 1536 1537 1537 1538 1538 1539 1539 1539 1539 1540 1540 1540 1540 1540 1541 1541 1542 1542 1541 1540 1540 1541 1541 1542 1542 1541 1539
1493 1497 1502 1506 1510 1515 1519 1523 1525 1528 1529 1531 1533 1534 1535 1536 1536 1537 1537 1538 1538 1539 1540 1540 1540 1541 1541 1542 1542 1542 1542 1542 1543 1543 1542 1543 1543 1541 1542 1542 1543 1543 1542
1493 1497 1500 1505 1509 1514 1517 1521 1524 1527 1529 1531 1532 1534 1535 1536 1537 1538 1538 1539 1539 1540 1540 1541 1542 1542 1543 1543 1544 1544 1543 1544 1544 1544 1545 1545 1546 1545 1544 1545 1545 1545 1545
1493 1496 1499 1504 1509 1514 1517 1520 1524 1527 1529 1530 1532 1534 1535 1536 1538 1538 1539 1540 1540 1541 1541 1542 1543 1543 1544 1545 1545 1546 1546 1546 1546 1547 1547 1548 1547 1547 1547 1547 1549 1547 1546
1489 1494 1499 1504 1508 1512 1516 1519 1522 1526 1528 1530 1532 1534 1535 1536 1538 1539 1540 1540 1541 1542 1543 1543 1544 1545 1545 1546 1547 1547 1547 1548 1548 1549 1549 1551 1550 1550 1550 1550 1550 1549 1548
1488 1493 1498 1503 1507 1512 1516 1519 1522 1525 1527 1529 1531 1533 1535 1537 1538 1539 1540 1541 1542 1543 1544 1545 1546 1546 1547 1548 1548 1549 1549 1549 1550 1551 1551 1553 1553 1553 1553 1552 1552 1551 1549
1488 1491 1496 1502 1506 1511 1516 1519 1521 1524 1527 1529 1531 1533 1535 1537 1538 1540 1540 1542 1543 1544 1545 1546 1547 1548 1549 1549 1550 1551 1550 1551 1551 1552 1553 1553 1554 1555 1555 1554 1553 1553 1551
1486 1490 1495 1500 1505 1510 1515 1518 1521 1524 1527 1529 1531 1533 1535 1536 1538 1540 1541 1542 1543 1544 1545 1546 1547 1549 1550 1550 1551 1552 1552 1552 1553 1554 1554 1555 1555 1555 1555 1555 1555 1554 1553
1484 1487 1494 1499 1504 1509 1513 1518 1521 1523 1526 1528 1531 1533 1535 1536 1538 1540 1541 1542 1543 1544 1545 1546 1548 1549 1551 1552 1552 1553 1553 1553 1554 1554 1555 1555 1555 1555 1555 1555 1555 1555 1553
1479 1484 1490 1497 1502 1507 1512 1517 1520 1522 1525 1528 1530 1532 1535 1536 1538 1540 1541 1542 1543 1544 1545 1546 1548 1549 1551 1552 1553 1553 1554 1554 1554 1555 1555 1555 1555 1555 1555 1555 1554 1554 1553
1476 1481 1488 1493 1499 1505 1510 1515 1519 1521 1524 1527 1529 1531 1534 1535 1537 1539 1540 1541 1542 1543 1544 1546 1547 1549 1551 1553 1554 1554 1555 1555 1555 1555 1555 1555 1555 1555 1554 1554 1553 1553 1552
1472 1479 1484 1489 1496 1503 1508 1513 1517 1520 1522 1525 1528 1530 1532 1534 1536 1538 1540 1541 1542 1543 1544 1545 1546 1549 1550 1552 1554 1554 1555 1555 1556 1556 1555 1555 1555 1555 1554 1554 1554 1553 1552
1471 1477 1482 1487 1492 1500 1506 1510 1514 1517 1520 1523 1526 1528 1530 1532 1534 1537 1539 1540 1541 1542 1543 1544 1546 1548 1550 1552 1553 1554 1555 1555 1556 1556 1556 1556 1555 1555 1555 1555 1555 1553 1553
1469 1474 1479 1484 1489 1495 1502 1506 1510 1512 1516 1520 1523 1526 1528 1530 1533 1535 1537 1539 1541 1542 1542 1543 1545 1547 1548 1550 1553 1554 1555 1556 1556 1556 1556 1556 1556 1556 1556 1555 1554 1553 1553
1462 1469 1471 1477 1486 1491 1498 1502 1505 1511 1514 1518 1521 1524 1526 1528 1530 1533 1536 1538 1539 1540 1541 1542 1543 1545 1547 1549 1551 1553 1555 1557 1556 1556 1555 1555 1556 1556 1555 1555 1554 1554 1552
1452 1458 1463 1472 1483 1488 1493 1497 1501 1506 1510 1513 1517 1520 1523 1525 1527 1530 1533 1535 1538 1539 1540 1540 1542 1543 1545 1547 1548 1551 1552 1552 1553 1554 1554 1555 1555 1554 1554 1554 1553 1553 1552
1451 1449 1457 1472 1478 1484 1486 1490 1494 1499 1503 1508 1514 1517 1520 1522 1524 1527 1530 1533 1535 1537 1538 1539 1539 1541 1543 1544 1546 1547 1549 1551 1551 1552 1553 1553 1554 1554 1553 1552 1552 1552 1552
1443 1444 1453 1464 1469 1478 1479 1483 1488 1493 1499 1505 1509 1512 1516 1517 1520 1523 1527 1529 1532 1534 1535 1537 1538 1538 1540 1542 1543 1544 1546 1547 1548 1549 1549 1551 1552 1552 1552 1551 1550 1551 1551
1437 1444 1448 1451 1458 1468 1472 1477 1482 1487 1493 1498 1503 1507 1511 1513 1516 1519 1523 1525 1528 1530 1532 1534 1535 1536 1537 1538 1540 1541 1543 1545 1546 1547 1547 1548 1550 1550 1551 1550 1549 1549 1549